IDALKE38 Weather Reports


time (UTC)temp
F
wind
direction
speed
knots
gust
knots
rain 1hr
in
rain 24hr
in
rain mn
in
humidity
%
barometer
mb
20260507060039 45 240 2.6 7.8 0.00 0.05 0.00 85 1007.1
20260507054543 45 220 1.7 5.2 0.00 0.05 0.00 84 1007.2
20260507053042 45 221 2.6 7.0 0.00 0.05 0.00 84 1007.3
20260507051537 45 237 3.5 7.8 0.00 0.05 0.00 84 1007.5
20260507050035 44 247 4.3 7.0 0.00 0.05 0.00 84 1007.5
20260507044625 44 227 2.6 5.2 0.00 0.05 0.00 84 1007.7
20260507043039 44 236 1.7 6.1 0.00 0.05 0.00 84 1007.9
20260507041538 44 231 2.6 4.3 0.00 0.05 0.00 85 1008.2
20260507040043 44 225 1.7 5.2 0.00 0.05 0.00 85 1008.1
20260507034540 44 219 1.7 3.5 0.00 0.05 0.05 85 1008.0
20260507033038 44 237 1.7 4.3 0.00 0.05 0.05 85 1008.1
20260507031539 44 246 0.9 4.3 0.00 0.05 0.05 85 1008.1
20260507030038 44 225 0.9 4.3 0.00 0.05 0.05 85 1008.3
20260507024538 44 215 1.7 4.3 0.00 0.05 0.05 86 1008.3
20260507023037 43 198 1.7 3.5 0.00 0.05 0.05 86 1008.5
20260507021536 43 193 0.0 1.7 0.00 0.05 0.05 85 1008.6
20260507020035 44 193 0.0 0.9 0.00 0.05 0.05 84 1008.6
20260507014538 44 0 0.0 2.6 0.00 0.05 0.05 83 1008.8
20260507013039 44 223 0.9 3.5 0.00 0.05 0.05 82 1008.8
20260507011540 45 226 1.7 4.3 0.00 0.05 0.05 82 1008.9
20260507010038 45 216 2.6 4.3 0.00 0.05 0.05 81 1008.8
20260507004536 46 215 1.7 4.3 0.00 0.05 0.05 80 1008.6
20260507003035 46 220 1.7 5.2 0.00 0.05 0.05 80 1008.5
20260507001547 46 242 1.7 5.2 0.00 0.05 0.05 79 1008.3
20260507000040 46 215 1.7 4.3 0.00 0.05 0.05 78 1008.3
20260506234544 47 214 1.7 5.2 0.00 0.05 0.05 77 1008.2
20260506233038 47 208 1.7 4.3 0.00 0.05 0.05 77 1008.1
20260506231538 47 223 1.7 7.0 0.00 0.05 0.05 76 1008.1
20260506230035 47 219 2.6 6.1 0.00 0.05 0.05 76 1008.0
20260506224619 47 207 1.7 5.2 0.00 0.05 0.00 78 1007.8
20260506224540 47 209 0.9 6.1 0.00 0.05 0.05 77 1007.7
20260506223037 48 209 1.7 7.0 0.00 0.05 0.05 76 1007.7
20260506223031 48 209 1.7 5.2 0.00 0.05 0.00 77 1008.0
20260506221538 48 220 2.6 6.1 0.00 0.05 0.05 77 1007.7
20260506221518 48 220 2.6 6.1 0.00 0.05 0.00 78 1008.1
20260506220042 48 236 3.5 8.7 0.00 0.05 0.05 76 1007.9
20260506220015 48 237 2.6 8.7 0.00 0.05 0.00 76 1008.2
20260506214606 48 223 4.3 6.1 0.00 0.05 0.00 76 1008.5
20260506214537 48 242 3.5 8.7 0.00 0.05 0.05 75 1008.1
20260506213035 48 209 3.5 7.8 0.00 0.05 0.05 75 1008.1
20260506213032 48 209 2.6 7.8 0.00 0.05 0.00 76 1008.5
20260506211626 48 197 3.5 7.8 0.00 0.05 0.00 75 1008.3
20260506211540 48 225 4.3 7.8 0.00 0.05 0.05 75 1007.9
20260506210100 48 155 0.9 7.0 0.00 0.05 0.00 78 1008.1
20260506210038 48 153 1.7 7.0 0.00 0.05 0.05 78 1007.9
20260506204537 47 209 2.6 6.1 0.00 0.05 0.05 78 1007.9
20260506204525 47 208 1.7 6.1 0.00 0.05 0.00 78 1008.2
20260506203102 46 218 4.3 8.7 0.00 0.05 0.05 77 1008.1
20260506203010 46 208 3.5 7.8 0.00 0.05 0.00 78 1008.4
20260506201610 46 234 1.7 7.0 0.00 0.05 0.00 80 1008.3
20260506201539 46 182 1.7 7.0 0.00 0.05 0.05 79 1008.2
20260506200046 46 223 3.5 6.1 0.00 0.05 0.05 79 1008.3
20260506200038 46 223 3.5 6.1 0.00 0.05 0.00 80 1008.6
20260506194619 46 232 2.6 7.0 0.00 0.05 0.00 80 1008.7
20260506194541 46 213 3.5 7.0 0.00 0.05 0.05 80 1008.5
20260506193104 45 217 2.6 7.8 0.00 0.05 0.00 81 1008.8
20260506193039 45 217 2.6 8.7 0.00 0.05 0.05 81 1008.7
20260506191539 45 211 2.6 6.1 0.00 0.05 0.05 80 1008.7
20260506191530 45 210 2.6 6.1 0.00 0.05 0.00 81 1008.8
20260506190046 45 199 1.7 7.0 0.00 0.05 0.05 81 1008.8
20260506190019 45 199 2.6 7.0 0.00 0.05 0.00 81 1008.8
20260506184629 45 222 2.6 7.8 0.00 0.05 0.00 81 1008.9
20260506184548 45 220 2.6 7.8 0.00 0.05 0.05 81 1008.9
20260506183034 45 194 0.9 6.1 0.00 0.05 0.05 82 1008.9
20260506183025 45 194 0.9 4.3 0.00 0.05 0.00 83 1009.0
20260506181626 45 166 0.9 5.2 0.00 0.05 0.00 83 1009.1
20260506181538 45 198 0.9 5.2 0.00 0.05 0.05 82 1009.0
20260506180056 44 187 1.7 4.3 0.00 0.05 0.00 83 1008.8
20260506180039 44 185 1.7 5.2 0.00 0.05 0.05 83 1008.9
20260506174537 44 126 4.3 7.0 0.00 0.05 0.05 83 1008.8
20260506174516 44 126 4.3 7.0 0.00 0.05 0.00 83 1008.8
20260506173117 44 136 3.5 7.0 0.00 0.05 0.00 83 1008.8
20260506173047 44 155 3.5 6.1 0.00 0.05 0.05 83 1008.9
20260506171538 44 135 2.6 10.4 0.00 0.05 0.05 85 1009.0
20260506171534 44 133 2.6 8.7 0.00 0.05 0.00 85 1009.1
20260506170036 44 142 3.5 7.0 0.00 0.05 0.05 86 1009.3
20260506170004 44 135 3.5 7.0 0.00 0.05 0.00 86 1009.2
20260506164613 44 142 1.7 7.0 0.00 0.05 0.00 86 1009.4
20260506164545 44 150 1.7 7.0 0.00 0.05 0.05 86 1009.3
20260506163055 43 206 1.7 5.2 0.00 0.05 0.05 88 1009.3
20260506163027 43 207 1.7 5.2 0.00 0.05 0.00 88 1009.6
20260506161538 43 209 1.7 6.1 0.00 0.05 0.05 87 1009.6
20260506160038 43 198 0.9 7.0 0.00 0.05 0.05 88 1009.3
20260506154543 42 189 3.5 6.1 0.00 0.05 0.05 87 1009.5
20260506153034 42 171 2.6 8.7 0.01 0.05 0.05 88 1009.7
20260506151542 42 175 0.9 3.5 0.01 0.05 0.05 89 1009.9
20260506150038 42 168 0.9 4.3 0.02 0.05 0.05 90 1009.9
20260506144537 42 0 0.9 7.0 0.03 0.05 0.05 90 1009.8
20260506143057 42 162 2.6 7.8 0.03 0.05 0.04 91 1009.6
20260506143039 42 166 2.6 7.8 0.03 0.04 0.04 90 1009.6
20260506141535 42 133 0.9 4.3 0.04 0.04 0.04 90 1009.7
20260506141515 42 147 0.9 3.5 0.04 0.05 0.04 91 1009.7
20260506140108 42 186 0.9 5.2 0.03 0.04 0.03 90 1009.5
20260506140040 42 190 1.7 5.2 0.03 0.03 0.03 89 1009.6
20260506134537 42 146 0.9 3.5 0.02 0.02 0.02 89 1009.7
20260506134535 42 196 1.7 5.2 0.02 0.03 0.02 89 1009.4
20260506133110 42 214 1.7 5.2 0.01 0.02 0.01 88 1009.4
20260506133038 42 214 1.7 5.2 0.01 0.01 0.01 87 1009.6
20260506131539 42 201 1.7 6.1 0.00 0.00 0.00 86 1009.7
20260506131537 42 209 1.7 7.8 0.00 0.01 0.00 86 1009.6
20260506130040 42 198 1.7 7.8 0.00 0.00 0.00 85 1009.5
20260506130013 42 200 2.6 7.8 0.00 0.01 0.00 85 1009.3
20260506124608 42 200 3.5 7.8 0.00 0.01 0.00 85 1009.4
20260506124545 42 200 2.6 8.7 0.00 0.00 0.00 84 1009.6
20260506123044 42 206 3.5 7.0 0.00 0.01 0.00 85 1009.2
20260506123036 42 211 2.6 8.7 0.00 0.00 0.00 85 1009.5
20260506121627 42 189 2.6 7.0 0.00 0.01 0.00 85 1009.2
20260506121546 42 174 2.6 7.8 0.00 0.00 0.00 85 1009.4
20260506120107 43 199 1.7 6.1 0.00 0.01 0.00 86 1009.2
20260506120040 43 201 1.7 6.1 0.00 0.00 0.00 85 1009.4
20260506114534 43 146 3.5 8.7 0.00 0.00 0.00 85 1009.3
20260506114503 43 150 3.5 8.7 0.00 0.01 0.00 85 1009.0
20260506113121 44 146 2.6 8.7 0.00 0.01 0.00 84 1009.0
20260506113034 44 173 3.5 8.7 0.00 0.00 0.00 83 1009.1
20260506111538 44 199 1.7 4.3 0.00 0.00 0.00 81 1009.1
20260506111536 44 196 1.7 6.1 0.00 0.01 0.00 82 1009.0
20260506110041 44 199 0.0 4.3 0.00 0.00 0.00 81 1009.0
20260506110029 44 199 0.9 3.5 0.00 0.01 0.00 82 1009.0
20260506104628 44 210 3.5 7.0 0.00 0.01 0.00 81 1009.2
20260506104537 44 202 2.6 5.2 0.00 0.00 0.00 81 1009.1
20260506103104 45 214 4.3 7.8 0.00 0.01 0.00 81 1009.2
20260506103038 45 199 3.5 7.0 0.00 0.00 0.00 81 1009.2
20260506101535 45 205 0.9 5.2 0.00 0.00 0.00 84 1009.0
20260506101524 45 205 0.9 5.2 0.00 0.01 0.00 84 1009.0
20260506100037 45 205 1.7 7.8 0.00 0.00 0.00 84 1009.0
20260506100012 45 202 2.6 6.1 0.00 0.01 0.00 85 1008.9
20260506094606 45 178 1.7 7.0 0.00 0.01 0.00 85 1008.9
20260506094539 45 178 2.6 7.0 0.00 0.00 0.00 85 1008.9
20260506093039 46 223 3.5 8.7 0.00 0.00 0.00 85 1008.9
20260506093026 46 223 3.5 7.8 0.00 0.01 0.00 85 1008.9
20260506091621 46 204 2.6 6.1 0.00 0.01 0.00 85 1008.9
20260506091537 46 213 2.6 7.0 0.00 0.00 0.00 85 1008.9
20260506090057 46 215 4.3 7.8 0.00 0.01 0.00 85 1008.9
20260506090037 46 209 3.5 7.8 0.00 0.00 0.00 84 1009.0
20260506084543 46 221 2.6 7.8 0.00 0.00 0.00 84 1008.8
20260506084517 46 221 2.6 6.1 0.00 0.01 0.00 85 1008.7
20260506083112 46 215 3.5 6.1 0.00 0.01 0.00 85 1008.7
20260506083042 46 225 2.6 6.1 0.00 0.00 0.00 84 1008.5
20260506081542 47 213 2.6 7.8 0.00 0.00 0.00 83 1008.8
20260506081535 47 213 1.7 7.8 0.00 0.01 0.00 84 1008.8
20260506073038 47 229 3.5 7.8 0.00 0.00 0.00 83 1008.9
20260506073035 47 229 2.6 7.8 0.00 0.01 0.00 83 1008.6
20260506071627 47 216 2.6 8.7 0.00 0.01 0.00 84 1008.5
20260506071542 48 224 3.5 8.7 0.00 0.00 0.00 83 1008.7
20260506070119 48 225 5.2 8.7 0.00 0.01 0.00 84 1008.4
20260506061542 48 231 4.3 10.4 0.00 0.01 0.00 84 1008.5
20260506061537 48 220 6.1 11.3 0.00 0.00 0.00 83 1008.5